Date,TemperatureHighF,TemperatureAvgF,TemperatureLowF,DewpointHighF,DewpointAvgF,DewpointLowF,HumidityHigh,HumidityAvg,HumidityLow,PressureMaxIn,PressureMinIn,WindSpeedMaxMPH,WindSpeedAvgMPH,GustSpeedMaxMPH,PrecipitationSumIn
2013-1-1,24,17,8,18,12,4,87,78,60,30.32,30.15,10,1,11,0.06
2013-1-2,27,16,5,16,10,1,88,78,61,30.30,30.19,14,3,20,0.01
2013-1-3,32,24,14,27,20,10,90,82,75,30.39,30.19,15,3,18,0.00
2013-1-4,33,23,11,25,17,7,87,80,71,30.38,30.30,15,4,15,0.01
2013-1-5,36,30,22,33,26,18,94,85,76,30.31,30.03,15,3,17,0.03
2013-1-6,36,27,17,33,22,15,91,83,75,30.39,30.01,17,5,19,0.01
2013-1-7,38,28,17,31,24,15,92,83,72,30.41,30.17,18,5,20,0.00
2013-1-8,39,32,28,34,28,24,87,82,76,30.21,30.10,13,4,18,0.00
2013-1-9,50,39,31,37,32,26,90,75,48,30.53,30.10,11,2,16,0.00
2013-1-10,51,38,29,50,33,24,97,82,66,30.52,29.81,14,4,14,0.52
2013-1-11,57,52,48,52,49,46,97,92,82,29.84,29.72,19,6,23,0.24
2013-1-12,52,42,28,49,38,26,92,84,70,29.99,29.74,19,5,23,0.08
2013-1-13,28,21,14,26,17,10,92,86,81,30.36,29.91,13,4,15,0.00
2013-1-14,24,17,13,18,13,10,88,84,72,30.52,30.35,10,1,12,0.01
2013-1-15,29,21,14,22,16,10,91,84,69,30.49,30.17,9,1,11,0.00
2013-1-16,37,28,17,29,22,14,92,78,65,30.18,29.95,22,3,25,0.00
2013-1-17,35,30,23,32,23,18,92,77,55,30.48,30.12,14,3,16,0.02
2013-1-18,44,34,22,33,26,18,85,74,61,30.49,30.04,23,7,27,0.01
2013-1-19,53,43,32,39,34,25,78,71,59,30.09,29.83,18,8,26,0.00
2013-1-20,32,20,16,24,12,8,81,69,56,30.36,30.09,14,5,18,0.00
2013-1-21,16,11,5,11,2,-3,81,67,47,30.41,30.27,19,8,20,0.00
2013-1-22,16,10,3,4,-1,-4,80,63,47,30.51,30.40,13,4,15,0.00
2013-1-23,32,21,13,18,10,3,74,63,50,30.43,30.16,13,4,24,0.00
2013-1-24,24,17,7,11,6,-1,81,61,51,30.68,30.35,14,4,22,0.00
2013-1-25,36,26,20,22,17,8,84,67,53,30.35,30.06,15,4,18,0.01
2013-1-26,32,23,12,19,13,8,85,66,48,30.45,30.25,11,2,12,0.00
2013-1-27,43,33,26,42,28,18,96,83,71,30.40,29.94,14,6,17,0.17
2013-1-28,57,50,43,56,50,42,98,97,96,29.96,29.80,19,4,20,0.04
2013-1-29,63,58,52,60,56,51,98,95,84,29.81,29.38,20,6,25,1.60
2013-1-30,52,35,19,51,33,14,97,91,77,29.80,29.26,24,7,25,0.21
2013-1-31,23,15,6,19,9,0,88,77,69,30.34,29.80,23,9,26,0.00
2013-2-1,21,12,3,18,4,-2,89,72,61,30.49,30.23,15,7,26,0.00
2013-2-2,29,22,15,25,18,11,91,85,79,30.25,30.08,14,4,18,0.00
2013-2-3,29,24,17,21,18,13,93,78,58,30.16,30.02,14,3,22,0.01
2013-2-4,38,29,21,29,23,18,88,79,68,30.04,29.83,18,4,19,0.02
2013-2-5,41,30,19,33,26,17,91,85,73,30.13,29.86,20,3,20,0.00
2013-2-6,44,35,25,34,30,23,93,80,67,30.25,30.09,13,3,14,0.00
2013-2-7,39,36,34,38,34,31,96,92,83,30.09,29.86,15,2,16,0.37
2013-2-8,33,29,26,32,25,22,94,86,82,30.42,30.03,16,4,18,0.00
2013-2-9,36,32,28,31,28,24,86,83,76,30.42,30.07,13,4,18,0.00
2013-2-10,49,43,36,48,40,31,95,90,66,30.08,29.55,22,7,24,0.34
2013-2-11,44,35,29,34,27,24,84,73,65,30.13,29.63,30,10,31,0.00
2013-2-12,38,30,25,29,26,22,92,82,67,30.18,29.96,11,2,12,0.00
2013-2-13,47,36,26,35,30,24,93,80,58,29.96,29.78,13,3,15,0.00
2013-2-14,42,37,32,33,32,29,89,80,69,30.04,29.74,18,5,22,0.00
2013-2-15,35,29,21,31,20,14,90,70,46,30.26,30.03,13,5,17,0.00
2013-2-16,29,21,14,16,12,8,81,69,53,30.27,30.17,16,4,16,0.00
2013-2-17,37,25,12,24,16,8,86,69,52,30.26,29.97,12,3,13,0.00
2013-2-18,54,41,26,47,34,20,94,78,66,29.98,29.49,26,9,31,0.22
2013-2-19,26,20,15,21,13,8,82,73,65,30.30,29.76,28,11,34,0.00
2013-2-20,25,16,7,15,10,2,87,74,57,30.46,30.33,15,3,15,0.00
2013-2-21,29,24,16,26,20,12,94,85,78,30.42,29.91,19,8,22,0.00
2013-2-22,33,30,27,32,28,23,96,91,85,30.02,29.81,16,4,22,0.01
2013-2-23,30,25,19,23,20,16,90,81,71,30.04,29.99,12,3,16,0.01
2013-2-24,38,28,16,28,22,13,92,80,60,30.17,30.04,9,1,10,0.04
2013-2-25,44,35,26,34,29,23,90,80,66,30.17,29.86,16,7,19,0.01
2013-2-26,35,33,32,32,31,29,96,92,77,29.86,29.47,24,6,32,0.28
2013-2-27,33,32,30,32,31,29,96,95,93,29.81,29.57,11,1,13,0.20
2013-2-28,36,33,32,32,31,29,95,92,84,30.10,29.81,12,2,13,0.16
2013-3-1,32,28,25,29,24,21,91,86,81,30.24,30.09,14,5,17,0.03
2013-3-2,31,24,15,21,18,12,88,77,62,30.26,30.20,13,4,15,0.04
2013-3-3,33,24,12,19,14,7,90,69,36,30.23,30.12,10,1,10,0.02
2013-3-4,37,32,26,30,25,16,85,77,66,30.14,29.93,15,7,18,0.00
2013-3-5,34,32,28,32,30,26,95,92,83,30.07,29.84,16,2,16,0.09
2013-3-6,32,28,25,27,25,22,92,86,78,30.38,30.07,13,2,14,0.17
2013-3-7,36,30,26,28,25,23,89,81,68,30.46,30.37,11,1,12,0.10
2013-3-8,42,34,25,34,29,22,90,81,71,30.48,30.27,12,3,13,0.00
2013-3-9,51,43,36,43,37,31,90,80,68,30.27,29.80,16,4,17,0.10
2013-3-10,52,49,45,51,47,42,97,93,77,29.81,29.56,15,3,18,1.24
2013-3-11,49,37,32,48,35,27,97,91,84,29.93,29.61,19,8,25,0.01
2013-3-12,40,32,27,33,26,20,91,80,66,30.15,29.91,23,8,24,0.00
2013-3-13,36,28,23,24,21,18,90,73,49,30.40,30.14,14,6,22,0.01
2013-3-14,44,33,23,32,26,20,88,76,58,30.40,30.11,16,3,18,0.00
2013-3-15,54,42,31,44,36,28,91,81,63,30.11,29.68,11,3,19,0.00
2013-3-16,45,36,31,42,33,27,95,87,71,30.14,29.65,14,3,17,0.00
2013-3-17,39,33,30,30,27,24,87,78,68,30.19,29.93,15,8,16,0.00
2013-3-18,40,33,26,36,28,17,94,84,69,29.95,29.71,18,9,23,0.05
2013-3-19,40,29,20,21,17,12,76,60,38,30.19,29.93,22,8,26,0.00
2013-3-20,31,24,16,22,12,6,78,60,43,30.22,30.12,22,8,23,0.00
2013-3-21,36,24,13,16,12,9,86,61,40,30.15,30.05,12,2,15,0.00
2013-3-22,44,32,19,24,19,15,87,61,36,30.12,30.02,10,1,12,0.00
2013-3-23,48,38,30,29,25,24,78,61,44,30.12,29.98,15,6,17,0.00
2013-3-24,33,31,30,30,28,25,94,90,72,30.00,29.64,17,7,19,0.00
2013-3-25,37,32,27,30,28,24,94,84,73,30.15,29.76,14,3,19,0.38
2013-3-26,40,34,30,29,27,25,86,76,57,30.32,30.15,12,4,15,0.19
2013-3-27,44,36,27,29,25,21,88,68,44,30.40,30.32,10,2,14,0.01
2013-3-28,50,38,25,34,28,22,89,69,51,30.41,30.31,12,1,12,0.00
2013-3-29,58,46,36,35,33,30,83,62,40,30.33,30.22,10,1,11,0.00
2013-3-30,56,47,35,44,39,31,90,72,55,30.24,29.89,19,4,20,0.00
2013-3-31,61,50,40,46,40,30,94,71,41,29.95,29.79,18,6,22,0.00
2013-4-1,44,36,28,31,22,17,83,59,36,30.25,29.94,16,5,20,0.00
2013-4-2,48,34,22,23,18,12,85,56,27,30.36,30.25,15,2,18,0.00
2013-4-3,50,38,26,22,20,16,78,51,28,30.48,30.32,14,3,14,0.00
2013-4-4,59,45,30,31,24,20,76,47,26,30.32,30.02,12,2,15,0.00
2013-4-5,60,47,36,35,29,22,80,52,27,30.21,30.04,14,5,16,0.00
2013-4-6,71,56,41,49,36,24,76,47,32,30.10,29.66,29,8,38,0.02
2013-4-7,70,56,42,48,43,39,93,64,39,29.94,29.72,13,4,17,0.00
2013-4-8,74,64,55,60,55,42,91,74,56,29.88,29.63,17,5,27,0.19
2013-4-9,79,69,57,62,59,51,86,72,52,29.88,29.77,26,4,28,0.00
2013-4-10,58,47,42,52,44,40,95,92,79,29.90,29.68,22,8,24,2.65
2013-4-11,50,45,39,48,42,33,96,91,80,29.74,29.60,19,6,22,0.11
2013-4-12,43,40,37,37,34,32,89,81,73,29.94,29.64,17,6,22,0.00
2013-4-13,52,44,36,36,32,26,82,65,49,30.03,29.93,19,6,25,0.00
2013-4-14,76,60,45,52,46,36,84,61,38,29.98,29.62,22,6,23,0.00
2013-4-15,62,55,46,56,50,44,95,86,63,29.99,29.69,17,4,22,0.44
2013-4-16,54,47,41,45,42,38,95,81,63,30.22,29.92,13,4,16,0.50
2013-4-17,57,49,44,55,45,37,96,86,72,30.23,29.72,20,8,20,1.57
2013-4-18,63,54,40,62,52,34,97,92,79,29.73,29.44,22,7,27,1.10
2013-4-19,41,38,35,34,31,29,89,77,68,30.04,29.61,25,10,29,0.01
2013-4-20,50,40,31,32,28,24,87,66,43,30.41,30.04,12,3,14,0.00
2013-4-21,58,47,37,40,34,29,75,63,49,30.49,30.31,14,6,17,0.00
2013-4-22,69,57,44,47,39,34,70,54,32,30.32,30.01,15,5,17,0.00
2013-4-23,60,48,38,51,44,36,94,89,62,30.05,29.90,14,4,27,0.54
2013-4-24,50,43,36,37,34,31,94,74,51,30.20,29.97,16,4,18,0.02
2013-4-25,56,47,40,35,32,27,80,57,38,30.33,30.15,18,6,25,0.00
2013-4-26,66,54,43,49,41,32,83,63,50,30.36,30.26,18,5,23,0.00
2013-4-27,64,54,44,51,48,42,95,81,49,30.30,29.97,14,3,14,0.33
2013-4-28,65,57,52,57,53,50,97,88,69,29.97,29.84,9,2,11,0.01
2013-4-29,75,62,48,61,54,46,96,78,58,29.93,29.74,20,4,20,0.00
2013-4-30,86,72,60,64,58,54,89,66,36,29.94,29.76,24,6,26,0.00
2013-5-1,84,72,60,61,56,51,87,61,35,30.09,29.94,13,2,16,0.00
2013-5-2,68,61,49,64,56,47,95,83,68,30.14,30.06,12,2,15,0.39
2013-5-3,64,53,43,62,52,42,96,94,88,30.09,29.82,11,4,14,0.65
2013-5-4,64,60,54,59,56,53,96,88,77,30.02,29.85,11,3,14,0.05
2013-5-5,73,61,53,59,54,48,96,79,43,30.01,29.90,12,3,13,0.01
2013-5-6,77,64,52,54,48,40,91,61,32,30.01,29.92,11,2,13,0.00
2013-5-7,79,66,50,51,45,39,84,49,27,30.04,29.95,9,1,13,0.00
2013-5-8,81,68,51,59,50,43,91,58,28,30.02,29.94,11,0,11,0.00
2013-5-9,68,63,60,63,59,52,97,89,65,29.97,29.80,11,0,17,0.55
2013-5-10,61,55,50,60,53,47,97,92,86,29.98,29.79,12,1,13,0.00
2013-5-11,63,53,42,53,42,29,95,69,36,30.10,29.91,16,2,25,0.01
2013-5-12,58,48,37,38,32,25,85,58,31,30.19,30.10,12,2,17,0.00
2013-5-13,68,54,36,43,36,30,91,55,25,30.21,30.03,10,1,13,0.00
2013-5-14,89,72,54,66,54,41,74,55,38,30.03,29.69,14,4,18,0.00
2013-5-15,82,75,67,64,58,54,71,57,45,29.83,29.72,12,2,17,0.00
2013-5-16,82,70,58,65,58,51,94,69,38,29.92,29.81,9,0,12,0.18
2013-5-17,80,70,60,66,61,57,96,76,50,29.98,29.90,7,0,9,0.45
2013-5-18,79,70,63,68,64,62,97,83,62,30.01,29.89,9,0,10,0.00
2013-5-19,87,76,64,72,68,62,94,77,57,29.92,29.69,15,1,17,0.00
2013-5-20,86,74,63,69,64,59,95,73,43,29.83,29.67,17,4,24,1.23
2013-5-21,79,70,62,69,64,60,95,82,65,29.75,29.63,16,4,20,0.16
2013-5-22,71,66,60,65,60,56,97,84,64,29.79,29.62,10,1,13,0.38
2013-5-23,60,57,50,57,53,47,95,87,75,30.26,29.79,10,1,12,0.03
2013-5-24,65,53,39,49,43,37,93,70,45,30.44,30.26,8,0,9,0.00
2013-5-25,54,50,48,52,45,36,95,83,60,30.41,30.24,6,0,7,0.23
2013-5-26,63,56,50,59,53,47,96,90,82,30.28,30.05,7,1,8,0.89
2013-5-27,69,62,57,66,61,56,97,96,88,30.11,29.78,10,0,11,1.17
2013-5-28,76,70,64,72,67,62,97,91,80,29.84,29.74,16,3,25,0.15
2013-5-29,83,76,62,72,68,62,97,79,66,29.91,29.82,13,2,17,0.52
2013-5-30,82,72,63,72,67,61,97,85,70,29.90,29.75,17,3,23,1.48
2013-5-31,74,68,63,72,66,62,97,94,83,29.87,29.66,14,2,16,1.77
2013-6-1,73,66,61,68,63,59,96,91,81,29.80,29.67,17,3,24,0.23
2013-6-2,62,60,56,60,56,51,95,89,80,30.04,29.79,11,0,12,0.00
2013-6-3,66,58,50,55,50,47,96,78,58,30.13,30.03,6,0,8,0.01
2013-6-4,72,63,51,58,53,47,93,72,52,30.13,30.02,8,0,8,0.00
2013-6-5,76,67,56,64,59,54,91,75,54,30.05,29.86,7,0,9,0.00
2013-6-6,72,64,58,63,58,53,89,80,68,29.89,29.82,6,0,9,0.01
2013-6-7,72,63,53,61,55,50,89,76,60,29.92,29.87,8,0,10,0.01
2013-6-8,75,65,50,63,53,44,84,66,49,29.97,29.91,9,0,10,0.00
2013-6-9,79,69,63,67,61,57,94,77,51,29.96,29.76,11,1,14,0.09
2013-6-10,69,62,60,64,60,59,96,94,81,29.79,29.73,6,0,8,0.00
2013-6-12,90,86,82,75,73,72,74,65,57,29.64,29.57,24,3,24,0.00
2013-6-13,82,74,66,73,61,53,87,66,40,29.99,29.64,12,2,14,0.00
2013-6-14,78,68,56,61,57,53,90,69,48,30.11,29.96,6,0,9,0.00
2013-6-15,76,70,66,70,64,55,95,80,66,30.04,29.87,14,1,18,0.31
2013-6-16,80,71,64,72,68,63,97,89,73,29.99,29.88,13,0,14,0.02
2013-6-17,83,74,64,72,66,57,97,77,45,29.94,29.86,9,0,9,0.00
2013-6-18,81,72,64,68,62,55,96,74,55,30.01,29.86,7,0,8,0.00
2013-6-19,82,70,56,67,58,50,83,67,46,30.09,30.01,8,0,9,0.00
2013-6-20,87,77,67,70,64,60,88,67,46,30.12,30.03,11,0,12,0.00
2013-6-21,86,75,68,74,69,63,96,81,62,30.11,29.96,13,1,15,1.11
2013-6-22,84,74,67,77,70,64,92,87,76,30.05,29.96,13,1,15,0.00
2013-6-23,85,74,67,75,69,64,94,86,69,30.03,29.90,14,1,16,0.00
2013-6-24,86,72,66,76,69,65,96,89,71,30.08,29.88,9,1,15,0.19
2013-6-25,84,75,69,77,71,67,96,88,74,29.93,29.79,13,2,18,0.05
2013-6-26,83,75,68,76,72,66,96,90,78,29.84,29.70,12,1,19,0.04
2013-6-27,87,78,71,74,71,68,97,81,58,29.82,29.72,11,1,12,0.00
2013-6-28,82,73,65,68,65,60,95,76,48,29.77,29.63,10,1,13,0.07
2013-6-29,74,67,63,67,64,59,96,90,76,29.75,29.60,10,0,13,0.24
2013-6-30,76,68,61,67,60,53,93,78,56,29.96,29.75,9,0,10,0.01
2013-7-1,78,68,58,59,54,51,85,64,43,30.02,29.94,11,1,12,0.00
2013-7-2,74,65,59,61,57,53,87,75,51,30.04,29.99,6,0,11,0.00
2013-7-3,76,66,59,63,58,53,93,77,46,30.07,30.01,9,0,9,0.00
2013-7-4,82,72,62,67,62,58,91,73,57,30.09,30.01,12,0,13,0.00
2013-7-5,83,73,65,70,65,59,95,77,46,30.07,29.99,10,0,11,0.00
2013-7-6,81,73,65,71,68,63,95,83,65,30.05,29.96,9,0,11,0.00
2013-7-7,87,77,66,76,70,63,91,78,60,30.01,29.93,11,1,15,0.00
2013-7-8,84,77,72,77,73,70,96,87,69,30.04,29.95,15,1,18,0.15
2013-7-9,88,80,76,79,76,73,96,87,72,29.99,29.86,11,1,14,0.03
2013-7-10,86,78,68,76,71,62,92,78,57,29.99,29.81,14,1,14,0.00
2013-7-11,80,70,61,65,61,56,95,74,44,30.07,29.99,9,0,9,0.00
2013-7-12,82,70,56,62,57,53,93,68,41,30.14,30.05,5,0,7,0.00
2013-7-13,83,73,62,66,62,59,91,71,46,30.13,30.05,5,0,8,0.00
2013-7-14,88,78,65,73,69,63,93,75,55,30.16,30.08,9,0,11,0.00
2013-7-15,86,77,72,80,74,69,97,88,70,30.24,30.15,5,0,6,0.37
2013-7-16,88,80,72,78,74,71,97,84,61,30.30,30.22,9,0,11,0.00
2013-7-17,90,79,72,78,73,70,95,83,62,30.31,30.22,8,0,9,0.00
2013-7-18,91,82,73,79,75,72,95,80,63,30.18,29.97,13,1,13,0.00
2013-7-19,93,84,75,78,74,72,90,75,56,29.97,29.78,13,1,16,0.00
2013-7-20,86,78,71,75,70,64,92,76,51,29.91,29.79,9,0,10,0.00
2013-7-21,80,74,66,75,70,64,96,89,76,29.92,29.83,0,0,5,0.06
2013-7-22,84,76,68,74,71,67,97,85,63,29.85,29.74,14,0,14,0.11
2013-7-23,80,72,65,72,66,60,97,84,63,29.93,29.73,10,0,13,0.06
2013-7-24,75,66,56,60,57,54,95,76,54,30.04,29.93,8,0,9,0.00
2013-7-25,79,68,53,64,58,51,94,73,49,30.12,30.04,9,0,9,0.00
2013-7-26,71,66,61,69,63,59,96,91,80,30.05,29.90,11,1,12,0.26
2013-7-27,69,61,54,60,55,49,96,82,58,29.97,29.91,11,1,12,0.00
2013-7-28,72,62,52,57,53,50,93,76,55,30.05,29.94,10,1,12,0.00
2013-7-29,76,64,52,63,56,50,95,77,48,30.16,30.05,6,0,8,0.00
2013-7-30,68,66,64,67,63,57,97,91,74,30.15,30.03,5,0,8,0.29
2013-7-31,74,69,66,70,67,64,98,94,84,30.04,29.97,6,0,8,0.02
2013-8-1,81,71,62,66,63,58,98,79,51,30.04,29.94,9,0,11,0.00
2013-8-2,82,74,65,72,67,61,96,80,66,29.95,29.86,12,1,14,0.40
2013-8-3,80,70,62,69,64,59,97,81,55,30.11,29.94,0,0,5,0.03
2013-8-4,79,68,57,62,59,56,96,76,47,30.17,30.09,6,0,8,0.00
2013-8-5,74,68,59,68,63,57,95,84,69,30.10,29.87,10,0,11,0.01
2013-8-6,84,74,65,75,70,64,96,87,71,29.91,29.81,10,0,11,0.00
2013-8-7,85,75,70,78,72,68,96,92,77,29.90,29.78,11,1,12,0.06
2013-8-8,80,72,65,70,66,60,95,81,65,29.98,29.90,7,0,8,0.00
2013-8-9,80,70,59,70,63,57,93,79,59,30.05,29.96,0,0,0,0.00
2013-8-10,81,71,62,67,63,58,94,77,53,30.12,30.05,7,0,11,0.00
2013-8-11,83,70,57,69,62,55,95,78,52,30.14,30.04,10,0,10,0.00
2013-8-12,81,72,64,73,67,62,96,85,70,30.06,29.88,10,0,12,0.01
2013-8-13,74,66,55,65,57,50,95,77,48,30.15,29.92,8,0,9,0.01
2013-8-14,73,61,50,56,52,48,95,75,47,30.22,30.14,8,0,8,0.00
2013-8-15,75,64,56,59,55,53,92,74,48,30.19,30.10,8,0,8,0.00
2013-8-16,79,68,60,60,58,54,92,71,45,30.17,30.12,5,0,6,0.00
2013-8-17,79,67,55,62,58,53,94,75,47,30.22,30.14,5,0,6,0.00
2013-8-18,81,69,57,64,59,55,93,73,46,30.19,30.09,8,0,8,0.00
2013-8-19,83,71,60,69,64,58,94,79,56,30.12,30.03,10,0,12,0.00
2013-8-20,85,74,64,70,67,61,93,78,55,30.11,30.02,11,0,12,0.00
2013-8-21,87,76,67,71,68,64,93,77,53,30.09,29.99,12,1,13,0.00
2013-8-22,80,73,69,73,69,67,96,87,73,30.11,30.00,12,0,13,0.34
2013-8-23,83,72,63,70,66,61,97,82,58,30.14,30.07,6,0,8,0.00
2013-8-24,86,74,61,72,66,59,91,76,58,30.22,30.13,9,0,11,0.00
2013-8-25,87,76,66,71,66,62,87,72,52,30.25,30.15,11,1,12,0.00
2013-8-26,89,78,67,76,70,64,92,76,59,30.17,30.00,12,1,12,0.00
2013-8-27,91,81,73,76,72,67,91,75,54,30.02,29.89,13,2,18,0.00
2013-8-28,93,81,72,79,72,66,89,74,60,29.98,29.88,8,0,9,0.00
2013-8-29,84,75,70,74,71,68,96,88,71,30.05,29.95,6,0,6,0.00
2013-8-30,95,81,69,78,72,64,95,75,45,29.96,29.76,11,1,13,0.00
2013-8-31,92,79,70,79,71,62,93,77,60,29.80,29.70,10,0,14,0.00
2013-9-1,87,76,68,74,70,64,95,82,60,29.82,29.72,12,0,13,0.00
2013-9-2,81,71,61,66,62,58,93,76,53,29.97,29.80,9,0,10,0.00
2013-9-3,76,65,54,61,58,52,95,80,56,30.09,29.97,8,0,9,0.00
2013-9-4,82,69,56,63,59,54,94,73,46,30.15,30.05,8,0,9,0.00
2013-9-5,86,73,61,70,63,57,92,74,52,30.19,30.11,6,0,8,0.00
2013-9-6,86,73,60,68,62,54,87,71,52,30.18,30.01,10,0,14,0.00
2013-9-7,88,76,65,69,66,62,91,73,45,30.02,29.88,12,1,15,0.00
2013-9-8,86,77,70,73,70,67,96,82,60,29.96,29.87,6,0,6,0.19
2013-9-9,95,82,71,76,73,70,94,77,50,29.91,29.83,12,2,15,0.00
2013-9-10,95,82,71,73,69,64,85,67,39,30.02,29.90,15,2,17,0.00
2013-9-11,93,81,72,72,68,65,83,68,40,30.06,29.98,9,1,14,0.00
2013-9-12,84,81,77,62,55,50,49,41,37,29.97,29.96,12,3,14,0.19
2013-9-13,69,65,56,48,45,41,74,50,39,30.18,30.10,9,1,10,0.00
2013-9-14,63,63,63,47,47,46,57,56,56,30.18,30.18,0,0,8,0.00
2013-9-15,67,60,56,61,55,47,93,81,61,30.15,29.98,13,1,15,0.09
2013-9-16,70,61,54,56,54,48,95,78,55,30.32,30.15,8,0,9,0.01
2013-9-17,75,62,50,59,54,48,93,76,54,30.31,30.09,6,0,9,0.00
2013-9-18,85,73,64,70,64,55,89,76,61,30.09,29.90,13,1,16,0.00
2013-9-19,91,80,70,72,70,66,93,74,52,29.94,29.77,14,3,18,0.14
2013-9-20,72,67,57,68,62,53,97,86,62,29.89,29.79,9,0,11,0.19
2013-9-21,68,58,51,54,51,48,93,78,50,29.95,29.85,9,0,12,0.00
2013-9-22,70,58,47,54,49,44,95,74,47,30.06,29.94,6,0,7,0.00
2013-9-23,74,61,47,54,48,44,90,66,39,30.08,29.97,8,0,10,0.00
2013-9-24,75,63,50,59,53,46,88,70,46,30.00,29.86,7,0,8,0.00
2013-9-25,78,65,53,61,55,49,86,70,52,29.92,29.86,6,0,6,0.00
2013-9-26,81,66,54,59,54,50,90,68,42,30.05,29.92,8,0,9,0.00
2013-9-27,82,68,52,58,52,49,90,61,33,30.13,30.01,9,0,10,0.00
2013-9-28,82,71,61,66,60,54,94,70,48,30.04,29.89,15,2,22,0.25
2013-9-29,69,60,52,60,51,43,96,77,40,30.06,29.96,7,0,9,0.12
2013-9-30,75,62,48,60,53,46,94,75,46,30.00,29.87,11,1,13,0.00
2013-10-1,79,68,62,68,64,59,95,88,66,29.99,29.91,16,2,17,0.00
2013-10-2,80,71,65,69,66,64,97,87,63,30.06,29.95,8,0,11,0.00
2013-10-3,81,69,64,72,67,63,97,92,72,29.96,29.81,15,1,19,0.71
2013-10-4,84,73,65,73,68,63,97,85,64,29.96,29.88,10,0,13,0.00
2013-10-5,77,71,60,72,67,54,96,87,71,29.92,29.76,14,1,15,0.00
2013-10-6,60,52,47,56,46,41,93,82,61,29.83,29.75,12,1,17,0.06
2013-10-7,67,55,45,54,48,43,96,79,52,30.11,29.82,10,1,11,0.00
2013-10-8,75,61,48,55,49,45,91,68,40,30.21,30.10,9,0,11,0.00
2013-10-9,73,60,50,52,48,45,87,67,40,30.22,30.10,8,0,8,0.00
2013-10-10,76,62,50,62,54,47,95,77,55,30.16,30.01,9,0,12,0.00
2013-10-11,78,67,60,62,57,55,87,71,48,30.04,29.90,12,0,14,0.00
2013-10-12,71,63,52,64,56,44,93,77,49,30.20,29.93,11,0,14,0.02
2013-10-13,67,54,44,45,40,32,87,62,30,30.40,30.20,9,0,10,0.00
2013-10-14,67,53,40,47,40,34,92,64,31,30.39,30.09,7,0,8,0.00
2013-10-15,68,60,52,62,53,44,94,77,61,30.09,29.81,15,1,20,0.01
2013-10-16,54,51,46,45,44,42,85,77,71,30.00,29.91,10,1,12,0.00
2013-10-17,59,51,47,48,44,40,95,79,51,29.98,29.87,9,0,12,0.12
2013-10-18,53,47,41,43,41,38,94,80,61,30.03,29.89,10,0,12,0.01
2013-10-19,55,47,40,42,39,35,94,75,49,29.99,29.86,14,2,15,0.05
2013-10-20,69,55,41,47,42,37,87,65,41,29.90,29.75,16,3,24,0.00
2013-10-21,59,47,34,46,35,26,79,65,45,30.04,29.84,10,1,14,0.00
2013-10-22,42,37,32,41,34,27,95,89,79,30.04,29.86,8,0,9,0.43
2013-10-23,46,39,34,36,33,29,95,80,57,30.11,29.97,9,0,9,0.01
2013-10-24,42,38,31,35,29,25,91,72,53,30.38,30.09,12,1,12,0.00
2013-10-25,52,39,28,35,29,25,91,69,42,30.48,30.16,14,2,17,0.00
2013-10-26,57,46,36,39,33,29,81,62,40,30.16,29.96,16,3,18,0.00
2013-10-27,55,42,31,35,32,28,90,68,42,30.13,30.01,11,1,14,0.00
2013-10-28,62,47,35,42,35,30,86,66,38,30.32,30.08,8,1,10,0.00
2013-10-29,58,48,38,51,43,36,95,83,56,30.32,30.12,6,0,8,0.01
2013-10-30,64,58,52,64,57,51,98,97,95,30.12,29.78,12,1,18,2.40
2013-10-31,64,58,46,64,56,43,98,96,91,29.78,29.28,13,2,17,0.98
2013-11-1,53,47,43,45,44,41,95,88,74,29.80,29.51,11,1,14,0.00
2013-11-2,51,43,36,41,38,33,96,84,61,30.18,29.80,10,0,11,0.01
2013-11-3,54,42,31,40,35,29,96,77,55,30.32,30.17,8,0,10,0.00
2013-11-4,58,51,45,46,42,37,80,73,60,30.24,30.10,13,2,22,0.00
2013-11-5,55,53,51,52,50,46,96,90,80,30.27,29.97,11,1,15,0.12
2013-11-6,57,47,34,56,44,31,97,92,85,30.23,29.84,19,3,22,0.98
2013-11-7,49,37,30,39,32,28,94,83,61,30.34,30.23,12,2,13,0.00
2013-11-8,49,41,30,37,33,28,95,74,53,30.38,30.02,13,1,16,0.00
2013-11-9,62,51,45,44,40,37,79,65,46,30.20,29.96,20,5,25,0.00
2013-11-10,49,41,34,37,32,29,84,73,55,30.42,30.20,11,1,11,0.00
2013-11-11,52,40,26,40,34,21,93,78,62,30.55,30.15,13,3,17,0.05
2013-11-12,32,24,19,23,20,16,89,82,66,30.79,30.55,11,1,13,0.05
2013-11-13,41,30,19,24,20,16,90,70,47,30.70,30.25,19,4,22,0.01
2013-11-14,52,40,30,30,25,21,70,57,36,30.25,30.01,20,6,26,0.00
2013-11-15,49,43,37,40,35,28,86,72,63,30.04,29.94,14,3,18,0.00
2013-11-16,60,54,42,57,51,38,94,91,83,29.94,29.59,20,6,23,0.11
2013-11-17,74,58,43,66,53,39,96,83,68,29.87,29.20,25,8,33,0.00
2013-11-18,49,40,30,40,33,26,90,76,54,30.30,29.87,18,5,24,0.00
2013-11-19,46,35,26,32,28,23,93,78,53,30.39,30.27,9,1,10,0.00
2013-11-20,43,37,32,40,33,28,94,84,70,30.29,30.06,11,2,14,0.20
2013-11-21,49,46,42,46,44,40,95,91,85,30.23,30.11,9,0,11,0.12
2013-11-22,44,36,27,43,34,25,95,90,82,30.54,30.22,13,2,15,0.02
2013-11-23,27,22,15,25,16,9,91,76,61,30.79,30.52,15,3,19,0.00
2013-11-24,29,19,10,14,10,4,87,68,37,30.82,30.46,12,2,15,0.00
2013-11-25,32,29,22,26,21,14,84,71,60,30.46,30.16,19,4,19,0.00
2013-11-26,36,28,18,28,21,8,85,73,64,30.25,30.09,15,3,18,0.00
2013-11-27,28,20,13,14,10,7,81,68,51,30.34,30.24,14,2,17,0.00
2013-11-28,38,27,20,23,18,13,83,69,53,30.55,30.24,15,3,18,0.00
2013-11-29,39,28,16,25,20,13,90,73,54,30.67,30.42,10,1,12,0.00
2013-11-30,52,40,30,35,31,24,83,71,52,30.42,30.10,15,3,17,0.00
2013-12-1,48,38,28,35,31,25,95,78,58,30.14,29.98,9,1,11,0.00
2013-12-2,45,38,31,39,35,29,93,87,75,29.98,29.70,10,2,10,0.00
2013-12-3,50,46,41,49,45,39,97,96,92,29.72,29.65,11,1,14,0.00
2013-12-4,56,49,36,55,48,33,98,95,86,29.81,29.49,18,3,22,0.01
2013-12-5,36,25,21,33,19,13,89,77,69,30.34,29.80,17,6,23,0.00
2013-12-6,21,17,12,14,11,7,81,75,67,30.64,30.31,14,2,17,0.00
2013-12-7,22,14,7,10,6,3,86,73,50,30.78,30.60,11,1,15,0.00
2013-12-8,25,21,13,23,18,8,93,86,75,30.60,30.04,12,5,15,0.00
2013-12-9,25,18,7,23,12,1,92,77,65,30.32,30.04,16,6,19,0.00
2013-12-10,27,16,4,16,8,0,84,71,52,30.37,30.16,22,4,25,0.00
2013-12-11,23,16,3,18,9,-3,86,73,56,30.68,30.30,14,2,16,0.00
2013-12-12,30,16,2,18,8,-4,81,70,58,30.66,30.28,18,3,18,0.00
2013-12-13,38,28,18,30,22,13,94,80,61,30.28,30.06,11,0,12,0.03
2013-12-14,32,29,21,31,27,18,96,93,88,30.09,29.92,12,1,13,0.00
2013-12-15,21,17,12,19,13,9,91,84,75,30.18,30.08,12,2,15,0.00
2013-12-16,22,18,14,20,16,11,93,89,86,30.18,30.06,9,1,10,0.00
2013-12-17,35,26,21,30,22,16,94,85,70,30.24,30.09,14,5,17,0.06
2013-12-18,39,28,16,33,21,11,85,75,55,30.25,29.91,20,4,25,0.11
2013-12-19,44,41,37,42,37,33,95,88,80,29.94,29.77,14,4,22,0.25
2013-12-20,46,38,31,45,37,30,97,96,95,29.87,29.72,10,1,12,0.15
2013-12-21,33,31,29,32,30,28,96,96,96,29.89,29.57,11,1,11,0.00
2013-12-22,33,30,22,32,28,19,97,94,89,30.24,29.62,11,1,14,0.00
2013-12-23,21,13,4,19,9,-2,90,83,76,30.59,30.24,14,6,18,0.00
2013-12-24,20,10,1,14,5,-4,83,80,76,30.67,30.41,11,2,15,0.00
2013-12-25,29,26,20,27,23,14,92,87,77,30.41,30.21,15,4,17,0.00
2013-12-26,38,30,19,32,25,16,92,82,72,30.38,30.22,18,3,19,0.06
2013-12-27,46,36,27,36,31,25,94,82,69,30.35,30.17,15,3,17,0.21
2013-12-28,53,42,35,40,34,31,84,75,57,30.18,29.88,16,5,19,0.08
2013-12-29,38,26,8,32,22,3,93,85,79,30.29,29.83,15,6,18,0.00
2013-12-30,17,10,2,12,4,-3,84,76,57,30.41,30.26,12,1,12,0.00
2013-12-31,24,17,11,18,12,8,87,81,72,30.46,30.26,13,4,15,0.00
2014-1-1,23,20,17,20,17,14,91,88,84,30.27,30.17,15,7,16,0.00
2014-1-2,17,13,3,14,9,-1,90,85,80,30.51,30.16,15,3,16,0.00